Wind_Speed
11 9 7 8 10 9 7 7 8 10 10 11 11 12 13 14 13 12 13 14 13 12 11 10 11 12 12 13 12 9 8 9 8 8 8 9 9 9 10 10 9 9
11 9 7 8 9 8 6 6 6 8 9 10 11 12 14 15 15 14 14 13 12 10 10 10 10 12 12 13 12 11 11 11 12 12 12 12 12 12 12 12 12 12
12 10 8 8 9 6 4 3 5 7 8 9 11 12 14 15 15 14 13 11 10 9 9 9 10 11 12 12 12 12 12 12 13 13 13 14 14 14 14 15 15 15
13 11 9 9 9 6 3 2 5 8 8 8 11 12 14 15 14 13 12 11 10 9 9 10 10 11 11 12 12 12 12 12 13 13 13 14 15 15 16 17 16 16
13 11 9 10 10 8 5 4 7 10 9 10 11 12 13 14 13 12 12 11 10 10 10 10 11 11 12 12 12 12 12 12 13 13 14 14 15 15 16 16 16 16
15 12 11 11 11 9 6 5 8 10 10 11 12 12 12 13 12 12 12 11 11 11 11 11 12 12 12 13 13 13 13 13 13 14 13 13 14 14 14 14 14 14
17 14 12 11 11 9 7 7 9 10 10 11 13 13 12 12 12 12 12 12 12 12 12 12 12 13 13 13 13 13 13 13 13 12 11 11 12 11 11 11 10 10
18 17 15 13 12 10 9 9 9 11 11 11 12 13 13 13 13 12 12 12 12 12 12 12 12 12 12 12 12 12 12 12 12 11 9 9 10 9 9 8 8 7
16 15 15 15 13 10 11 10 10 12 13 11 11 12 13 13 13 13 12 12 12 12 11 11 11 11 11 11 11 10 10 10 11 10 9 9 8 8 7 7 7 6
11 12 14 15 13 12 12 12 12 13 14 13 11 10 12 13 13 13 13 12 12 11 11 11 11 10 10 10 10 10 9 8 8 9 9 8 8 8 7 7 6 6
8 10 13 14 13 13 13 13 14 13 14 15 14 11 11 12 12 13 13 13 12 12 12 12 11 11 10 10 10 10 9 8 7 7 7 7 8 8 8 7 7 6
8 10 13 13 13 13 13 15 16 14 14 15 15 13 13 12 12 12 12 12 12 12 12 12 12 12 11 11 10 10 10 9 8 7 7 7 7 7 8 8 7 7
6 9 12 13 13 13 15 17 18 16 15 15 16 15 14 14 13 13 13 13 13 13 13 13 13 13 12 12 11 10 10 9 8 7 7 7 7 7 7 8 8 8
4 6 9 10 11 12 14 16 18 18 17 17 17 16 16 15 15 15 15 15 15 15 15 15 14 14 14 13 11 11 11 9 8 8 7 8 8 9 10 10 10 10
3 4 6 8 9 11 12 14 15 17 19 20 18 17 16 17 17 17 16 16 17 17 17 17 16 16 16 15 13 13 12 11 10 9 9 10 10 11 12 13 13 13
2 3 4 6 7 8 11 13 12 13 17 19 19 18 17 17 18 18 16 15 16 17 17 17 18 19 19 17 16 15 14 13 13 14 14 14 14 14 15 15 15 15
1 1 2 4 6 7 9 11 12 13 15 17 19 19 19 19 19 19 17 17 17 17 17 18 19 21 20 19 18 18 17 17 18 18 19 18 18 18 17 15 13 13
0 1 2 3 4 6 8 10 12 14 15 16 17 18 20 20 20 20 19 18 17 17 18 19 20 22 22 22 22 21 20 21 21 21 20 19 19 18 15 12 10 10
1 1 3 4 5 6 8 9 11 13 15 16 16 18 19 19 20 20 20 19 17 17 17 18 20 22 23 25 27 26 24 23 22 21 18 16 16 15 13 12 11 10
3 2 2 4 6 7 8 9 10 11 13 14 15 17 17 16 16 18 21 22 21 20 19 20 22 24 25 27 28 27 25 24 22 19 16 14 13 13 12 12 11 10
2 2 2 3 4 6 7 8 9 11 12 13 14 16 17 16 17 21 25 27 27 26 24 23 22 23 24 23 22 20 18 17 17 16 14 12 11 11 10 10 11 11
3 3 4 4 5 5 5 7 9 10 11 11 12 12 13 15 19 21 22 22 22 22 22 19 17 17 17 16 15 14 13 13 13 12 11 11 11 10 9 9 9 8
5 5 6 6 7 6 6 6 7 8 9 10 9 8 8 12 16 16 14 13 14 14 14 13 12 12 12 13 13 13 13 12 11 10 10 11 10 10 9 8 7 6
6 6 6 6 6 6 7 8 7 7 7 7 7 7 10 14 15 14 13 12 12 12 12 11 11 11 12 12 13 13 13 12 10 10 11 11 10 10 9 8 7 6
9 9 9 9 8 8 8 8 8 9 9 8 8 9 12 14 14 13 13 13 12 12 12 11 11 11 12 13 13 13 13 12 11 10 11 10 10 11 10 9 8 7
11 12 12 13 13 13 13 11 10 10 10 10 10 10 11 12 12 13 14 14 13 13 14 13 13 13 14 13 14 14 14 14 12 10 11 11 11 11 11 10 9 7
Wind_Direction
183 179 161 153 154 146 139 138 132 130 133 140 149 155 156 149 139 133 130 130 128 125 125 122 120 119 118 121 119 116 134 149 149 145 139 136 136 136 140 143 142 139
185 183 181 177 171 157 141 128 121 129 135 141 149 156 158 151 140 136 133 131 129 128 130 131 131 131 128 129 128 127 134 139 139 139 137 135 133 135 138 138 139 135
190 193 202 196 188 176 158 137 127 136 141 145 149 153 155 151 144 141 137 133 129 128 132 137 141 141 139 137 134 134 139 140 140 141 140 139 138 139 139 136 137 136
199 203 209 204 203 202 192 176 148 145 145 146 148 150 153 152 148 145 141 135 130 127 130 135 140 141 139 137 133 134 138 139 140 139 138 138 138 139 139 137 137 136
209 210 213 212 212 209 201 184 160 151 146 143 145 149 151 151 150 148 144 138 134 130 128 129 131 133 132 129 127 128 130 131 132 131 131 133 134 136 137 136 138 136
219 218 222 224 218 210 205 192 172 159 148 143 143 145 149 150 148 147 144 141 139 135 131 128 126 126 126 125 124 124 124 126 124 121 121 123 125 129 131 133 136 137
226 231 237 231 218 215 213 202 189 175 159 148 145 145 148 149 147 148 147 144 142 140 138 135 131 130 129 127 127 126 126 126 121 116 116 118 119 122 126 130 135 139
234 242 240 221 212 220 218 207 203 193 176 160 150 148 149 151 151 152 151 148 148 146 145 143 140 138 136 134 133 133 132 130 126 125 127 124 122 123 126 131 135 142
232 239 228 210 210 222 220 214 213 204 191 177 163 156 155 156 158 158 157 156 154 152 151 150 149 148 146 143 142 143 143 141 139 141 143 137 130 132 137 140 139 143
214 221 216 210 214 219 219 220 220 215 203 193 184 175 168 165 165 165 163 163 162 161 160 159 159 160 157 154 154 153 152 152 152 153 155 153 151 156 160 158 155 157
198 208 215 220 223 220 219 218 217 219 213 202 197 194 187 179 176 175 172 169 169 169 169 169 171 173 172 171 170 168 166 165 167 170 173 174 175 177 178 176 174 176
199 203 211 220 226 223 220 215 213 216 215 210 206 203 200 192 185 184 180 175 173 175 177 179 182 185 187 188 186 184 182 181 183 186 189 192 194 195 194 193 192 192
198 202 207 216 223 225 222 218 215 213 213 217 215 211 208 202 196 193 190 186 186 190 192 194 195 197 200 201 201 200 199 198 198 200 204 210 214 218 218 217 214 209
194 199 204 213 219 222 221 219 218 216 214 217 218 216 215 213 209 206 203 203 204 205 207 209 208 210 212 211 211 214 216 214 213 216 224 232 236 238 239 238 238 235
188 193 199 210 216 218 218 217 219 219 216 215 218 220 222 224 223 220 218 219 220 219 220 220 219 221 222 221 220 223 226 224 228 235 241 249 253 251 250 248 247 249
177 190 195 208 213 216 218 215 216 218 216 216 221 224 226 229 230 229 228 230 231 229 229 228 228 229 230 231 231 231 232 234 242 249 252 258 262 260 259 259 255 254
160 192 196 207 210 215 220 218 219 221 218 220 226 230 232 233 233 232 234 238 240 240 239 237 235 233 234 236 239 240 240 244 251 257 259 263 265 262 262 261 255 252
177 204 222 229 222 222 223 220 222 225 225 229 234 236 237 237 236 235 237 240 244 247 247 245 243 242 242 245 248 248 245 247 253 260 266 268 262 257 253 248 241 237
322 237 236 242 238 236 233 229 228 228 229 233 238 240 240 240 241 240 239 240 244 246 248 247 247 248 248 249 252 253 251 251 253 256 262 261 251 247 242 237 237 237
9 337 271 257 249 244 241 240 241 241 239 240 243 246 245 242 244 246 246 247 248 249 250 251 253 255 254 253 253 253 253 254 250 246 244 242 239 240 240 238 237 236
14 341 306 294 282 268 257 252 251 252 252 251 253 258 258 253 250 251 252 251 250 251 253 255 256 257 256 253 249 247 246 244 236 230 227 229 233 236 238 239 237 235
302 292 290 289 290 286 271 258 254 255 259 260 262 267 263 248 241 243 246 246 244 246 248 248 247 246 243 238 233 227 222 218 217 218 219 221 228 233 232 233 234 233
291 283 283 279 276 274 264 258 254 251 256 260 262 261 238 220 225 232 233 231 230 229 229 227 225 222 217 214 210 205 204 207 211 213 214 216 221 226 226 226 227 226
285 266 260 260 262 261 255 253 252 247 250 250 243 233 217 210 216 222 218 212 212 210 208 209 205 199 197 198 198 200 205 211 209 205 208 213 217 223 227 229 229 228
285 270 256 248 250 257 255 250 248 243 242 238 230 228 223 217 216 214 208 204 205 204 204 206 202 197 199 203 205 210 214 211 202 201 209 211 212 222 230 232 231 233
291 281 270 260 256 257 257 259 258 248 238 233 225 217 218 219 214 206 201 203 207 207 208 212 212 210 212 214 214 215 216 211 203 205 212 210 208 217 226 231 232 231
Height
1537 1538 1539 1539 1539 1539 1539 1540 1541 1541 1541 1542 1542 1543 1543 1544 1545 1545 1546 1546 1547 1547 1548 1548 1548 1549 1549 1550 1551 1552 1553 1553 1554 1555 1555 1556 1556 1557 1558 1559 1559 1560
1537 1538 1539 1539 1538 1539 1539 1540 1540 1541 1541 1541 1542 1543 1543 1544 1545 1546 1546 1547 1548 1548 1549 1549 1550 1550 1551 1551 1552 1553 1554 1554 1555 1555 1556 1556 1557 1558 1559 1559 1560 1561
1537 1538 1538 1539 1538 1538 1539 1539 1540 1541 1541 1541 1542 1543 1543 1544 1545 1546 1547 1548 1548 1549 1549 1550 1550 1551 1551 1552 1553 1554 1554 1555 1556 1556 1557 1557 1558 1559 1559 1560 1561 1562
1536 1537 1538 1538 1538 1538 1539 1539 1540 1541 1541 1542 1542 1543 1544 1545 1546 1547 1547 1548 1549 1549 1550 1550 1551 1552 1552 1553 1554 1554 1555 1556 1557 1558 1558 1558 1559 1560 1560 1561 1562 1563
1535 1537 1537 1538 1538 1538 1538 1539 1540 1541 1541 1542 1543 1543 1544 1545 1546 1547 1548 1548 1549 1550 1550 1551 1552 1552 1553 1554 1555 1555 1556 1557 1558 1559 1559 1560 1560 1561 1562 1562 1563 1564
1534 1535 1537 1538 1538 1538 1538 1539 1540 1541 1542 1542 1543 1544 1544 1545 1546 1547 1548 1548 1549 1550 1551 1552 1553 1553 1554 1555 1556 1556 1557 1558 1559 1560 1561 1561 1561 1562 1562 1563 1564 1565
1533 1534 1535 1537 1537 1538 1538 1539 1540 1541 1542 1542 1543 1544 1544 1545 1546 1547 1548 1548 1549 1550 1551 1552 1553 1554 1555 1556 1557 1557 1558 1559 1560 1561 1561 1562 1562 1563 1563 1564 1565 1566
1531 1532 1534 1535 1536 1537 1538 1539 1540 1540 1542 1543 1543 1544 1544 1545 1546 1547 1548 1549 1549 1551 1552 1553 1554 1554 1555 1556 1557 1558 1559 1559 1560 1561 1562 1562 1563 1563 1564 1564 1565 1566
1530 1531 1532 1533 1535 1536 1537 1538 1539 1540 1541 1542 1543 1544 1544 1545 1546 1547 1548 1548 1549 1551 1552 1553 1554 1554 1555 1556 1557 1558 1559 1559 1560 1561 1562 1562 1563 1563 1564 1564 1565 1565
1528 1529 1530 1532 1533 1535 1536 1537 1539 1539 1540 1542 1543 1543 1544 1544 1545 1546 1547 1548 1549 1550 1551 1552 1553 1554 1555 1556 1557 1558 1558 1559 1560 1560 1561 1562 1562 1563 1563 1564 1564 1565
1526 1527 1529 1530 1531 1533 1535 1536 1538 1538 1540 1541 1542 1543 1543 1544 1545 1546 1547 1548 1549 1550 1551 1552 1553 1553 1554 1555 1556 1557 1558 1559 1559 1560 1561 1561 1562 1562 1562 1563 1563 1564
1525 1526 1527 1528 1530 1531 1533 1535 1536 1537 1539 1540 1541 1542 1542 1543 1544 1545 1546 1547 1549 1550 1551 1551 1552 1553 1554 1554 1555 1556 1557 1557 1558 1559 1560 1560 1561 1561 1561 1562 1562 1563
1524 1524 1525 1527 1528 1530 1531 1533 1534 1536 1537 1539 1540 1541 1541 1542 1543 1544 1545 1546 1548 1549 1550 1550 1551 1552 1553 1553 1554 1555 1555 1556 1557 1558 1559 1559 1560 1560 1561 1561 1561 1562
1523 1524 1525 1526 1527 1528 1530 1531 1532 1534 1535 1537 1538 1539 1540 1541 1542 1543 1543 1544 1546 1547 1548 1549 1550 1551 1551 1552 1553 1554 1554 1555 1556 1557 1557 1558 1558 1559 1559 1560 1560 1560
1523 1523 1524 1525 1526 1527 1528 1529 1531 1532 1533 1535 1536 1538 1539 1539 1540 1541 1542 1543 1544 1545 1546 1547 1548 1549 1549 1550 1551 1552 1553 1553 1554 1555 1556 1556 1557 1557 1558 1558 1558 1559
1522 1522 1523 1524 1525 1526 1527 1528 1529 1530 1531 1533 1534 1536 1537 1537 1538 1539 1540 1541 1542 1543 1544 1545 1545 1546 1546 1548 1549 1549 1551 1551 1552 1553 1553 1554 1555 1556 1556 1556 1556 1556
1522 1522 1522 1523 1524 1525 1526 1527 1528 1529 1529 1531 1532 1533 1534 1535 1536 1537 1538 1539 1539 1541 1542 1542 1543 1543 1544 1545 1546 1547 1548 1549 1549 1550 1550 1551 1552 1553 1554 1554 1554 1554
1522 1522 1522 1523 1523 1524 1525 1525 1526 1527 1528 1529 1530 1531 1531 1532 1534 1534 1535 1536 1537 1538 1539 1540 1540 1541 1542 1543 1543 1544 1545 1546 1546 1547 1547 1548 1549 1550 1551 1551 1551 1552
1521 1521 1522 1522 1522 1523 1523 1524 1525 1525 1526 1527 1528 1528 1529 1530 1531 1532 1532 1533 1534 1535 1536 1536 1537 1538 1539 1540 1540 1541 1542 1543 1543 1544 1545 1546 1546 1547 1548 1548 1549 1549
1521 1521 1521 1521 1521 1522 1522 1523 1523 1524 1525 1525 1525 1526 1527 1528 1529 1530 1530 1530 1531 1531 1532 1533 1533 1534 1535 1535 1536 1537 1538 1539 1540 1541 1541 1543 1544 1545 1545 1546 1546 1546
1520 1520 1520 1520 1520 1521 1521 1522 1522 1522 1523 1523 1523 1523 1524 1525 1527 1527 1527 1527 1527 1527 1528 1529 1530 1530 1531 1532 1533 1534 1535 1536 1537 1538 1539 1541 1542 1543 1543 1543 1544 1544
1519 1519 1520 1520 1520 1520 1520 1520 1521 1521 1521 1521 1521 1521 1521 1522 1523 1524 1523 1523 1523 1524 1525 1526 1527 1527 1528 1530 1531 1532 1533 1534 1536 1537 1538 1540 1540 1540 1541 1541 1541 1542
1519 1518 1518 1518 1519 1519 1519 1519 1519 1519 1519 1519 1519 1519 1519 1519 1520 1520 1521 1521 1521 1522 1523 1524 1525 1526 1527 1528 1529 1531 1532 1533 1535 1536 1538 1538 1538 1539 1539 1539 1539 1540
1517 1517 1517 1517 1517 1518 1518 1518 1518 1518 1518 1517 1517 1518 1518 1518 1518 1518 1519 1520 1521 1521 1522 1523 1524 1525 1526 1527 1529 1530 1531 1533 1534 1536 1536 1536 1537 1537 1537 1537 1538 1538
1516 1516 1516 1516 1516 1516 1516 1516 1516 1516 1516 1516 1516 1516 1517 1517 1517 1517 1518 1519 1520 1521 1522 1523 1524 1525 1526 1527 1528 1529 1530 1532 1534 1535 1535 1535 1535 1535 1535 1536 1536 1537
1514 1514 1514 1514 1515 1515 1514 1515 1515 1515 1515 1515 1514 1515 1515 1516 1516 1517 1518 1519 1520 1521 1522 1522 1523 1524 1525 1526 1527 1528 1529 1530 1532 1534 1534 1534 1534 1534 1534 1534 1535 1535